| time (UTC) | temp F | wind direction | speed MPH | gust MPH | rain 1hr in | rain 24hr in | rain mn in | humidity % | barometer mb |
| 20260902073235 | 61 | 73 | 0.0 | 0.0 | 0.00 | 0.38 | 0.00 | 98 | 1019.2 |
| 20260902072218 | 61 | 73 | 0.0 | 0.0 | 0.00 | 0.38 | 0.00 | 98 | 1019.1 |
| 20260902070058 | 61 | 77 | 0.0 | 0.0 | 0.00 | 0.38 | 0.00 | 98 | 1019.0 |
| 20260902065103 | 61 | 82 | 0.0 | 0.0 | 0.00 | 0.38 | 0.00 | 98 | 1019.1 |
| 20260902064037 | 61 | 87 | 0.0 | 0.0 | 0.00 | 0.41 | 0.00 | 98 | 1019.2 |
| 20260902063012 | 61 | 79 | 0.0 | 0.0 | 0.00 | 0.42 | 0.00 | 98 | 1019.1 |
| 20260902062026 | 61 | 78 | 0.0 | 0.0 | 0.00 | 0.47 | 0.00 | 98 | 1019.2 |
| 20260902061031 | 61 | 78 | 0.0 | 0.0 | 0.00 | 0.53 | 0.00 | 98 | 1019.2 |
| 20260902060003 | 61 | 78 | 0.0 | 0.0 | 0.00 | 0.61 | 0.00 | 98 | 1019.4 |
| 20260902054952 | 61 | 78 | 0.0 | 0.0 | 0.00 | 0.70 | 0.00 | 98 | 1019.2 |
| 20260902053924 | 61 | 78 | 0.0 | 0.0 | 0.00 | 0.71 | 0.00 | 98 | 1019.3 |
| 20260902052851 | 61 | 78 | 0.0 | 0.0 | 0.00 | 0.73 | 0.00 | 98 | 1019.2 |
| 20260902051837 | 61 | 78 | 0.0 | 0.0 | 0.00 | 0.77 | 0.00 | 98 | 1019.2 |
| 20260902050810 | 61 | 75 | 0.0 | 0.0 | 0.00 | 0.77 | 0.00 | 97 | 1019.2 |
| 20260902045738 | 61 | 110 | 0.0 | 0.0 | 0.00 | 0.77 | 0.00 | 98 | 1019.2 |
| 20260902044718 | 61 | 110 | 0.0 | 0.0 | 0.00 | 0.77 | 0.00 | 98 | 1019.1 |
| 20260902043731 | 61 | 75 | 0.0 | 0.0 | 0.00 | 0.78 | 0.00 | 97 | 1019.1 |
| 20260902042722 | 61 | 74 | 0.0 | 0.0 | 0.00 | 0.78 | 0.00 | 97 | 1019.0 |
| 20260902041746 | 61 | 74 | 0.0 | 0.0 | 0.00 | 0.78 | 0.00 | 97 | 1019.0 |
| 20260902040730 | 61 | 84 | 0.0 | 0.0 | 0.00 | 0.78 | 0.00 | 97 | 1018.9 |
| 20260902035747 | 61 | 84 | 0.0 | 0.0 | 0.00 | 0.78 | 0.77 | 97 | 1018.8 |
| 20260902034723 | 61 | 84 | 0.0 | 0.0 | 0.00 | 0.78 | 0.77 | 97 | 1018.6 |
| 20260902033651 | 62 | 84 | 0.0 | 0.0 | 0.00 | 0.78 | 0.77 | 97 | 1018.4 |
| 20260902032715 | 62 | 110 | 0.0 | 0.0 | 0.00 | 0.78 | 0.77 | 97 | 1018.3 |
| 20260902031716 | 62 | 68 | 0.0 | 0.0 | 0.00 | 0.78 | 0.77 | 97 | 1018.4 |
| 20260902030730 | 61 | 68 | 0.0 | 0.0 | 0.00 | 0.78 | 0.77 | 97 | 1018.4 |
| 20260902025752 | 62 | 64 | 0.0 | 0.0 | 0.00 | 0.78 | 0.77 | 97 | 1018.3 |
| 20260902023604 | 62 | 65 | 0.0 | 0.0 | 0.00 | 0.78 | 0.77 | 97 | 1018.0 |
| 20260902021450 | 62 | 68 | 0.0 | 0.0 | 0.00 | 0.78 | 0.77 | 97 | 1017.7 |
| 20260902015338 | 62 | 39 | 0.0 | 0.0 | 0.00 | 0.78 | 0.77 | 97 | 1017.8 |
| 20260902014401 | 62 | 63 | 0.0 | 2.0 | 0.00 | 0.78 | 0.77 | 96 | 1017.7 |
| 20260902013338 | 62 | 82 | 0.0 | 0.0 | 0.00 | 0.78 | 0.77 | 96 | 1017.6 |
| 20260902012343 | 62 | 123 | 0.0 | 0.0 | 0.00 | 0.78 | 0.77 | 96 | 1017.4 |
| 20260902010257 | 63 | 88 | 0.0 | 0.0 | 0.00 | 0.77 | 0.77 | 96 | 1017.1 |
| 20260902005246 | 63 | 82 | 0.0 | 1.0 | 0.06 | 0.77 | 0.77 | 96 | 1017.3 |
| 20260902004220 | 63 | 75 | 0.0 | 1.0 | 0.38 | 0.76 | 0.76 | 96 | 1017.0 |
| 20260902003243 | 63 | 81 | 0.0 | 0.0 | 0.00 | 0.73 | 0.73 | 95 | 1017.0 |
| 20260902002250 | 64 | 83 | 0.0 | 0.0 | 0.00 | 0.73 | 0.73 | 95 | 1016.8 |
| 20260901235026 | 65 | 56 | 0.0 | 3.0 | 0.00 | 0.73 | 0.73 | 95 | 1016.5 |
| 20260901234029 | 65 | 78 | 0.0 | 0.0 | 0.00 | 0.73 | 0.73 | 95 | 1016.4 |
| 20260901233026 | 66 | 238 | 0.0 | 2.0 | 0.00 | 0.73 | 0.73 | 94 | 1016.3 |
| 20260901225716 | 69 | 76 | 0.0 | 2.0 | 0.00 | 0.73 | 0.73 | 93 | 1016.0 |
| 20260901224725 | 70 | 319 | 0.0 | 2.0 | 0.00 | 0.73 | 0.73 | 93 | 1015.7 |
| 20260901223654 | 72 | 84 | 0.0 | 2.0 | 0.00 | 0.73 | 0.73 | 92 | 1015.3 |
| 20260901222653 | 74 | 67 | 0.0 | 0.0 | 0.00 | 0.72 | 0.72 | 94 | 1015.0 |
| 20260901221707 | 74 | 133 | 0.0 | 0.0 | 0.00 | 0.72 | 0.72 | 93 | 1014.9 |
| 20260901214733 | 75 | 84 | 0.0 | 0.0 | 0.00 | 0.73 | 0.72 | 92 | 1014.7 |
| 20260901213758 | 75 | 134 | 0.0 | 0.0 | 0.00 | 0.73 | 0.72 | 91 | 1014.6 |
| 20260901212753 | 76 | 129 | 0.0 | 0.0 | 0.00 | 0.73 | 0.72 | 91 | 1014.6 |
| 20260901210715 | 76 | 241 | 0.0 | 0.0 | 0.00 | 0.73 | 0.72 | 91 | 1014.4 |
| 20260901205709 | 76 | 237 | 0.0 | 0.0 | 0.00 | 0.73 | 0.72 | 91 | 1014.6 |
| 20260901204716 | 77 | 236 | 0.0 | 0.0 | 0.00 | 0.73 | 0.72 | 89 | 1014.4 |
| 20260901203707 | 77 | 293 | 0.0 | 0.0 | 0.00 | 0.73 | 0.72 | 88 | 1014.4 |
| 20260901202718 | 78 | 292 | 0.0 | 0.0 | 0.00 | 0.73 | 0.72 | 87 | 1014.4 |
| 20260901201700 | 78 | 293 | 0.0 | 0.0 | 0.00 | 0.73 | 0.72 | 86 | 1014.5 |
| 20260901200713 | 79 | 292 | 0.0 | 0.0 | 0.00 | 0.73 | 0.72 | 85 | 1014.4 |
| 20260901194617 | 77 | 256 | 0.0 | 0.0 | 0.00 | 0.73 | 0.72 | 88 | 1014.3 |
| 20260901193617 | 77 | 256 | 0.0 | 0.0 | 0.00 | 0.73 | 0.72 | 87 | 1014.4 |
| 20260901192555 | 77 | 247 | 0.0 | 0.0 | 0.00 | 0.73 | 0.72 | 86 | 1014.5 |
| 20260901191612 | 77 | 269 | 0.0 | 2.0 | 0.00 | 0.73 | 0.72 | 88 | 1014.4 |
| 20260901190555 | 77 | 186 | 0.0 | 0.0 | 0.00 | 0.73 | 0.72 | 89 | 1014.5 |
| 20260901185600 | 76 | 146 | 0.0 | 0.0 | 0.00 | 0.73 | 0.72 | 91 | 1014.5 |
| 20260901184555 | 75 | 234 | 0.0 | 0.0 | 0.00 | 0.73 | 0.72 | 94 | 1014.7 |
| 20260901183542 | 75 | 76 | 0.0 | 0.0 | 0.00 | 0.73 | 0.72 | 95 | 1014.6 |
| 20260901181402 | 74 | 76 | 0.0 | 0.0 | 0.00 | 0.72 | 0.71 | 97 | 1014.7 |
| 20260901180418 | 73 | 344 | 0.0 | 0.0 | 0.00 | 0.72 | 0.71 | 98 | 1014.7 |
| 20260901174258 | 73 | 344 | 0.0 | 0.0 | 0.00 | 0.72 | 0.71 | 98 | 1014.7 |
| 20260901173247 | 72 | 344 | 0.0 | 0.0 | 0.00 | 0.72 | 0.71 | 98 | 1014.6 |
| 20260901172257 | 72 | 344 | 0.0 | 0.0 | 0.00 | 0.72 | 0.71 | 98 | 1014.7 |
| 20260901171303 | 72 | 344 | 0.0 | 0.0 | 0.00 | 0.72 | 0.71 | 98 | 1014.6 |
| 20260901170246 | 72 | 344 | 0.0 | 0.0 | 0.00 | 0.72 | 0.71 | 98 | 1014.6 |
| 20260901165300 | 71 | 344 | 0.0 | 0.0 | 0.00 | 0.72 | 0.71 | 98 | 1014.6 |
| 20260901164252 | 71 | 129 | 0.0 | 0.0 | 0.00 | 0.72 | 0.71 | 98 | 1014.8 |
| 20260901163232 | 71 | 1 | 0.0 | 0.0 | 0.00 | 0.72 | 0.71 | 98 | 1014.9 |
| 20260901162213 | 71 | 57 | 0.0 | 0.0 | 0.00 | 0.72 | 0.71 | 98 | 1015.4 |
| 20260901161228 | 71 | 57 | 0.0 | 0.0 | 0.00 | 0.72 | 0.71 | 98 | 1015.7 |
| 20260901160217 | 70 | 331 | 0.0 | 0.0 | 0.00 | 0.72 | 0.71 | 98 | 1015.6 |
| 20260901155212 | 70 | 331 | 0.0 | 0.0 | 0.00 | 0.72 | 0.71 | 98 | 1016.0 |
| 20260901154223 | 70 | 314 | 0.0 | 0.0 | 0.00 | 0.72 | 0.71 | 98 | 1016.1 |
| 20260901153237 | 70 | 312 | 0.0 | 0.0 | 0.00 | 0.72 | 0.71 | 98 | 1016.1 |
| 20260901151138 | 70 | 314 | 0.0 | 0.0 | 0.00 | 0.72 | 0.71 | 98 | 1015.7 |
| 20260901145005 | 69 | 314 | 0.0 | 0.0 | 0.00 | 0.72 | 0.71 | 98 | 1015.8 |
| 20260901143939 | 69 | 314 | 0.0 | 0.0 | 0.05 | 0.72 | 0.71 | 98 | 1015.7 |
| 20260901142926 | 69 | 315 | 0.0 | 0.0 | 0.05 | 0.72 | 0.71 | 98 | 1015.8 |
| 20260901141941 | 69 | 315 | 0.0 | 0.0 | 0.00 | 0.71 | 0.70 | 98 | 1016.0 |
| 20260901140925 | 69 | 315 | 0.0 | 0.0 | 0.04 | 0.69 | 0.69 | 98 | 1016.0 |
| 20260901135926 | 69 | 315 | 0.0 | 0.0 | 0.05 | 0.69 | 0.69 | 98 | 1016.2 |
| 20260901134925 | 69 | 315 | 0.0 | 0.0 | 0.06 | 0.68 | 0.68 | 98 | 1016.0 |
| 20260901133906 | 69 | 315 | 0.0 | 0.0 | 0.08 | 0.67 | 0.67 | 98 | 1016.0 |
| 20260901132914 | 69 | 315 | 0.0 | 0.0 | 0.13 | 0.66 | 0.66 | 98 | 1016.2 |
| 20260901131858 | 69 | 315 | 0.0 | 0.0 | 0.30 | 0.65 | 0.64 | 98 | 1016.2 |
| 20260901125734 | 69 | 337 | 0.0 | 0.0 | 0.00 | 0.46 | 0.45 | 98 | 1016.7 |
| 20260901123600 | 69 | 337 | 0.0 | 0.0 | 0.00 | 0.46 | 0.45 | 98 | 1016.2 |
| 20260901122535 | 69 | 337 | 0.0 | 0.0 | 0.00 | 0.46 | 0.45 | 98 | 1016.1 |
| 20260901121500 | 68 | 337 | 0.0 | 0.0 | 0.00 | 0.46 | 0.45 | 98 | 1016.1 |
| 20260901120433 | 68 | 337 | 0.0 | 0.0 | 0.00 | 0.46 | 0.45 | 98 | 1016.0 |
| 20260901115427 | 68 | 337 | 0.0 | 0.0 | 0.00 | 0.46 | 0.45 | 98 | 1016.2 |
| 20260901114422 | 68 | 337 | 0.0 | 0.0 | 0.00 | 0.46 | 0.45 | 98 | 1016.3 |
| 20260901113431 | 67 | 337 | 0.0 | 0.0 | 0.00 | 0.46 | 0.45 | 98 | 1016.2 |
| 20260901112358 | 67 | 337 | 0.0 | 0.0 | 0.00 | 0.44 | 0.43 | 98 | 1016.2 |
| 20260901111339 | 67 | 337 | 0.0 | 0.0 | 0.00 | 0.44 | 0.43 | 98 | 1016.2 |
| 20260901110347 | 67 | 337 | 0.0 | 0.0 | 0.00 | 0.44 | 0.43 | 98 | 1016.1 |
| 20260901105403 | 67 | 337 | 0.0 | 0.0 | 0.00 | 0.44 | 0.43 | 98 | 1016.2 |
| 20260901104407 | 67 | 337 | 0.0 | 0.0 | 0.00 | 0.44 | 0.43 | 98 | 1016.2 |
| 20260901103408 | 67 | 337 | 0.0 | 0.0 | 0.00 | 0.44 | 0.43 | 98 | 1016.2 |
| 20260901101322 | 67 | 337 | 0.0 | 0.0 | 0.00 | 0.44 | 0.43 | 98 | 1016.0 |
| 20260901095211 | 67 | 337 | 0.0 | 0.0 | 0.00 | 0.44 | 0.43 | 98 | 1015.8 |
| 20260901094156 | 67 | 337 | 0.0 | 0.0 | 0.00 | 0.44 | 0.43 | 98 | 1016.0 |
| 20260901093215 | 67 | 337 | 0.0 | 0.0 | 0.00 | 0.44 | 0.43 | 98 | 1016.1 |
| 20260901092228 | 67 | 337 | 0.0 | 0.0 | 0.00 | 0.44 | 0.43 | 98 | 1016.1 |
| 20260901091229 | 67 | 337 | 0.0 | 0.0 | 0.00 | 0.44 | 0.43 | 98 | 1016.1 |
| 20260901090254 | 67 | 337 | 0.0 | 0.0 | 0.00 | 0.44 | 0.43 | 98 | 1016.2 |
| 20260901084152 | 67 | 337 | 0.0 | 0.0 | 0.04 | 0.44 | 0.43 | 98 | 1016.3 |
| 20260901083208 | 67 | 337 | 0.0 | 0.0 | 0.04 | 0.44 | 0.43 | 97 | 1016.5 |
| 20260901082220 | 67 | 337 | 0.0 | 0.0 | 0.06 | 0.43 | 0.43 | 97 | 1016.6 |
| 20260901081208 | 67 | 337 | 0.0 | 0.0 | 0.21 | 0.43 | 0.43 | 97 | 1016.7 |
| 20260901080153 | 67 | 337 | 0.0 | 0.0 | 0.00 | 0.41 | 0.40 | 97 | 1016.8 |
| 20260901075153 | 67 | 337 | 0.0 | 0.0 | 0.00 | 0.40 | 0.40 | 97 | 1016.8 |
| 20260901074206 | 67 | 337 | 0.0 | 0.0 | 0.00 | 0.40 | 0.40 | 97 | 1016.7 |